DW7653 Weather Reports


time (UTC)temp
C
wind
direction
speed
KPH
gust
KPH
rain 1hr
cm
rain 24hr
cm
rain mn
cm
humidity
%
barometer
mb
20260510161559 26 360 0.0 0.0 0.00 0.00 0.00 36 1015.0
20260510160055 26 360 0.0 0.0 0.00 0.00 0.00 37 1015.0
20260510154549 25 360 0.0 0.0 0.00 0.00 0.00 44 1015.1
20260510153044 23 360 0.0 0.0 0.00 0.00 0.00 45 1015.2
20260510151544 22 360 0.0 0.0 0.00 0.00 0.00 49 1015.3
20260510150038 21 360 0.0 0.0 0.00 0.00 0.00 53 1015.3
20260510144532 20 360 0.0 0.0 0.00 0.00 0.00 59 1015.2
20260510143033 19 360 0.0 0.0 0.00 0.00 0.00 60 1015.3
20260510141523 18 360 0.0 0.0 0.00 0.00 0.00 64 1015.2
20260510140018 18 360 0.0 0.0 0.00 0.00 0.00 64 1015.1
20260510134514 17 360 0.0 0.0 0.00 0.00 0.00 60 1015.3
20260510133021 17 360 0.0 0.0 0.00 0.00 0.00 55 1015.2
20260510131505 17 360 0.0 0.0 0.00 0.00 0.00 51 1015.2
20260510124559 15 360 0.0 0.0 0.00 0.00 0.00 15 1014.7
20260510123101 15 360 0.0 0.0 0.00 0.00 0.00 9 1014.6
20260510121551 15 360 0.0 0.0 0.00 0.00 0.00 11 1014.5
20260510120049 14 360 0.0 0.0 0.00 0.00 0.00 15 1014.4
20260510114547 14 360 0.0 0.0 0.00 0.00 0.00 20 1014.5
20260510113046 13 360 0.0 0.0 0.00 0.00 0.00 23 1014.2
20260510111543 13 360 0.0 0.0 0.00 0.00 0.00 24 1013.9
20260510110041 14 360 0.0 0.0 0.00 0.00 0.00 24 1013.5
20260510104540 14 360 0.0 0.0 0.00 0.00 0.00 24 1013.2
20260510103035 14 360 0.0 0.0 0.00 0.00 0.00 25 1012.9
20260510101532 14 360 0.0 0.0 0.00 0.00 0.00 26 1012.6
20260510100031 14 360 0.0 0.0 0.00 0.00 0.00 25 1012.6
20260510094529 14 360 0.0 0.0 0.00 0.00 0.00 24 1012.4
20260510093027 14 360 0.0 0.0 0.00 0.00 0.00 24 1012.3
20260510091527 15 360 0.0 0.0 0.00 0.00 0.00 25 1012.2
20260510090028 15 360 0.0 0.0 0.00 0.00 0.00 25 1012.0
20260510084525 15 360 0.0 0.0 0.00 0.00 0.00 24 1011.9
20260510083023 15 360 0.0 0.0 0.00 0.00 0.00 25 1011.9
20260510081523 15 360 0.0 0.0 0.00 0.00 0.00 27 1011.8
20260510080026 15 360 0.0 0.0 0.00 0.00 0.00 28 1011.8
20260510074522 15 360 0.0 0.0 0.00 0.00 0.00 30 1011.9
20260510073022 15 360 0.0 0.0 0.00 0.00 0.00 31 1011.5
20260510071517 15 360 0.0 0.0 0.00 0.00 0.00 33 1011.3
20260510070017 15 360 0.0 0.0 0.00 0.00 0.00 32 1011.3
20260510064515 15 360 0.0 0.0 0.00 0.00 0.00 31 1011.6
20260510063015 15 360 0.0 0.0 0.00 0.00 0.00 31 1011.4
20260510061513 15 360 0.0 0.0 0.00 0.00 0.00 30 1011.3
20260510060018 15 360 0.0 0.0 0.00 0.00 0.00 31 1011.7
20260510054511 15 360 0.0 0.0 0.00 0.00 0.00 32 1011.8
20260510053012 16 360 0.0 0.0 0.00 0.00 0.00 36 1012.0
20260510051506 16 360 0.0 0.0 0.00 0.00 0.00 35 1012.1
20260510050007 16 360 0.0 0.0 0.00 0.00 0.00 34 1012.1
20260510044504 16 360 0.0 0.0 0.00 0.00 0.00 31 1012.3
20260510043002 16 360 0.0 0.0 0.00 0.00 0.00 31 1012.0
20260510041601 16 360 0.0 0.0 0.00 0.00 0.00 33 1011.9
20260510040112 16 360 0.0 0.0 0.00 0.00 0.00 32 1012.0
20260510034554 16 360 0.0 0.0 0.00 0.00 0.00 35 1012.0
20260510033052 16 360 0.0 0.0 0.00 0.00 0.00 39 1011.9
20260510031553 16 360 0.0 0.0 0.00 0.00 0.00 44 1011.9
20260510030040 16 360 0.0 0.0 0.00 0.00 0.00 43 1011.9
20260510024537 17 360 0.0 0.0 0.00 0.00 0.00 43 1011.7
20260510023033 17 360 0.0 0.0 0.00 0.00 0.00 47 1011.7
20260510021535 17 360 0.0 0.0 0.00 0.00 0.00 54 1011.6
20260510020023 17 360 0.0 0.0 0.00 0.00 0.00 57 1011.5
20260510014518 18 360 0.0 0.0 0.00 0.00 0.00 57 1011.2
20260510013014 18 360 0.0 0.0 0.00 0.00 0.00 60 1010.9
20260510011510 18 360 0.0 0.0 0.00 0.00 0.00 61 1010.6
20260510010006 19 360 0.0 0.0 0.00 0.00 0.00 63 1010.5
20260510004501 20 360 0.0 0.0 0.00 0.00 0.00 64 1010.5
20260510003103 20 360 0.0 0.0 0.00 0.00 0.00 64 1010.4
20260510001554 20 360 0.0 0.0 0.00 0.00 0.00 64 1010.4
20260510000051 21 360 0.0 0.0 0.00 0.00 0.00 63 1010.2
20260509234543 21 360 0.0 0.0 0.00 0.00 0.00 63 1009.9
20260509233038 21 360 0.0 0.0 0.00 0.00 0.00 63 1009.8
20260509231535 21 360 0.0 0.0 0.00 0.00 0.00 62 1009.7
20260509230030 21 360 0.0 0.0 0.00 0.00 0.00 62 1009.5
20260509224525 21 360 0.0 0.0 0.00 0.00 0.00 61 1009.4
20260509223025 21 360 0.0 0.0 0.00 0.00 0.00 60 1009.4
20260509221520 22 360 0.0 0.0 0.00 0.00 0.00 61 1009.5
20260509220012 22 360 0.0 0.0 0.00 0.00 0.00 61 1009.5
20260509214507 22 360 0.0 0.0 0.00 0.00 0.00 60 1009.4
20260509213004 22 360 0.0 0.0 0.00 0.00 0.00 59 1009.5
20260509211601 22 360 0.0 0.0 0.00 0.00 0.00 60 1009.2
20260509210113 22 360 0.0 0.0 0.00 0.00 0.00 60 1009.2
20260509204556 21 360 0.0 0.0 0.00 0.00 0.00 60 1009.3
20260509203046 21 360 0.0 0.0 0.00 0.00 0.00 62 1009.4
20260509201549 21 360 0.0 0.0 0.00 0.00 0.00 61 1009.5
20260509200039 21 360 0.0 0.0 0.00 0.00 0.00 60 1009.5
20260509194532 21 360 0.0 0.0 0.00 0.00 0.00 59 1009.8
20260509193028 21 360 0.0 0.0 0.00 0.00 0.00 58 1009.9
20260509191524 21 360 0.0 0.0 0.00 0.00 0.00 59 1009.9
20260509190019 21 360 0.0 0.0 0.00 0.00 0.00 58 1010.0
20260509184521 21 360 0.0 0.0 0.00 0.00 0.00 56 1010.3
20260509183010 21 360 0.0 0.0 0.00 0.00 0.00 55 1010.3
20260509181508 21 360 0.0 0.0 0.00 0.00 0.00 54 1010.4
20260509180001 21 360 0.0 0.0 0.00 0.00 0.00 54 1010.6
20260509174557 21 360 0.0 0.0 0.00 0.00 0.00 54 1010.7
20260509173052 21 360 0.0 0.0 0.00 0.00 0.00 57 1010.9
20260509171551 21 360 0.0 0.0 0.00 0.00 0.00 58 1011.1
20260509170043 20 360 0.0 0.0 0.00 0.00 0.00 56 1011.3
20260509164548 21 360 0.0 0.0 0.00 0.00 0.00 57 1011.8
20260509163037 20 360 0.0 0.0 0.00 0.00 0.00 58 1011.7